Regional Weather Roundup
Issued by NWS Goodland, KS

Home | Current Version | Previous Version | Text Only | Print | Product List | Glossary On
Versions: 1 2 3 4 5 6 7 8 9 10 11 12 13 14 15 16 17 18 19 20 21 22 23 24 25 26 27 28 29 30 31 32 33 34 35 36 37 38 39 40 41 42 43 44 45 46 47 48 49 50
000
ASUS43 KGLD 261108
RWRGLD

GOODLAND FORECAST AREA HOURLY WEATHER ROUNDUP
NATIONAL WEATHER SERVICE GOODLAND KS
500 AM MDT THU MAY 26 2016

...OFFICIAL OBSERVATIONS...

CITY           SKY/WX    TMP DP  RH WIND       PRES   REMARKS
GOODLAND KS    CLOUDY    53  47  79 E6        29.92F
HILL CITY KS   CLOUDY    55  52  89 NE7       29.85F
IMPERIAL NEB   MOCLDY    53  49  86 NW3       29.93R
MCCOOK NEB     PTCLDY    48  46  93 W6        29.91R
AKRON CO       CLOUDY    51  42  71 W10       29.98R THUNDER
BURLINGTON CO  CLEAR     52  44  74 NE8       29.92F
LIMON CO       CLOUDY    53  42  66 NE6       29.99S
$$

...UNOFFICIAL OBSERVATIONS...

CITY           SKY/WX    TMP DP  RH WIND       PRES   REMARKS
GOVE KS          N/A     58  32  37 MISG        N/A
LENORA KS        N/A     50  32  50 MISG        N/A
SHARON SPRINGS   N/A     52  47  84 NE8         N/A
KIT CARSON CO    N/A     54  46  73 CALM        N/A
YUMA CO          N/A     51  47  85 CALM        N/A
$$




USA.gov is the U.S. government's official web portal to all federal, state and local government web resources and services.